Weather in Ishurdi

Bangladesh     24°07′47″N   89°03′50″E
temp.,
°C
wind,
m/s
gust,
m/s
humid.,
%
clouds,
%
prec.,
mm/h
press.,
hPa
HPBL,
m
24 may, tue
tue2400:00+29se126749 0.2 100250
03:00+28se237224 0.6 100255
06:00+28ese247614 0.6 1003158
09:00+31sse22590 0.0 1005894
12:00+35ese214563 0.0 10032300
15:00+35ne534322 0.3 10011092
18:00+28sse587091 1.3 1001201
21:00+29ese1264100 0.0 100323
25 may, wed
wed2500:00+27sw4106999 0.1 1005359
03:00+26w23798 0.1 1003110
06:00+26se22764 0.1 100494
09:00+31se445543 0.0 1006787
12:00+35se4345100 0.0 10041755
15:00+36sse223886 0.0 10012476
18:00+31e7105993 0.0 1001472
21:00+29ese577037 4.0 1004240
26 may, thu
thu2600:00+24s3490100 24.4 1004181
03:00+25sw367818 2.7 1002123
06:00+26nne128134 2.7 100499
09:00+29e226214 0.0 1005555
12:00+33sse33530 0.0 10031407
15:00+36w12410 0.0 10002017
18:00+35e234910 0.0 99982
21:00+26wnw8117979 2.3 1003423
27 may, fri
fri2700:00+27s2481100 7.6 1000145
03:00+27sse118172 0.0 100024
06:00+27s23825 0.0 1001133
09:00+31s23550 0.0 1003705
12:00+34se33480 0.0 10011502
15:00+37s23390 0.0 9982096
18:00+36s01450 0.0 99719
21:00+29sse611684 0.0 999304
28 may, sat
sat2800:00+28s61056100 1.3 999170
03:00+27s355383 0.4 99894
06:00+26e346622 0.5 1000105
09:00+31se346810 0.0 1002835
12:00+36sse44495 0.0 10001670
15:00+38ssw33371 0.0 9972314
18:00+35se574694 0.0 997228
21:00+29nw1267100 0.6 999144